Time,TemperatureF,DewpointF,PressureIn,WindDirection,WindDirectionDegrees,WindSpeedMPH,WindSpeedGustMPH,Humidity,HourlyPrecipIn,Conditions,Clouds,dailyrainin,SoftwareType,DateUTC
2013-08-09 00:04:00,68.9,59.5,29.98,SE,141,0.0,0.0,72,0.00,,,0.00,meteohub,2013-08-09 05:04:00,
2013-08-09 00:09:00,68.7,59.4,29.98,SE,141,0.0,0.0,72,0.00,,,0.00,meteohub,2013-08-09 05:09:00,
2013-08-09 00:15:00,68.7,59.4,29.98,SE,141,0.0,0.0,72,0.00,,,0.00,meteohub,2013-08-09 05:15:00,
2013-08-09 00:20:00,68.5,59.5,29.98,SE,141,0.0,0.0,73,0.00,,,0.00,meteohub,2013-08-09 05:20:00,
2013-08-09 00:25:00,68.5,59.5,29.98,SE,141,0.0,0.0,73,0.00,,,0.00,meteohub,2013-08-09 05:25:00,
2013-08-09 00:30:00,68.4,59.4,29.98,SE,141,0.0,0.0,73,0.00,,,0.00,meteohub,2013-08-09 05:30:00,
2013-08-09 00:35:00,68.4,59.4,29.98,SE,141,0.0,0.0,73,0.00,,,0.00,meteohub,2013-08-09 05:35:00,
2013-08-09 00:40:00,68.2,59.2,29.98,SE,141,0.0,0.0,73,0.00,,,0.00,meteohub,2013-08-09 05:40:00,
2013-08-09 00:45:00,68.0,59.0,29.98,SE,141,0.0,0.0,73,0.00,,,0.00,meteohub,2013-08-09 05:45:00,
2013-08-09 00:50:00,67.8,58.8,29.98,SE,141,0.0,0.0,73,0.00,,,0.00,meteohub,2013-08-09 05:50:00,
2013-08-09 00:55:00,67.8,59.2,29.97,SE,141,0.0,0.0,74,0.00,,,0.00,meteohub,2013-08-09 05:55:00,
2013-08-09 01:00:00,67.6,59.4,29.98,SE,141,0.0,0.0,75,0.00,,,0.00,meteohub,2013-08-09 06:00:00,
2013-08-09 01:05:00,67.6,59.4,29.97,SE,141,0.0,0.0,75,0.00,,,0.00,meteohub,2013-08-09 06:05:00,
2013-08-09 01:10:00,67.6,59.7,29.97,SE,141,0.0,0.0,76,0.00,,,0.00,meteohub,2013-08-09 06:10:00,
2013-08-09 01:15:00,67.5,60.1,29.97,SE,141,0.0,0.0,77,0.00,,,0.00,meteohub,2013-08-09 06:15:00,
2013-08-09 01:20:00,67.3,59.9,29.97,SE,141,0.0,0.0,77,0.00,,,0.00,meteohub,2013-08-09 06:20:00,
2013-08-09 01:25:00,66.9,59.9,29.97,SE,141,0.0,0.0,78,0.00,,,0.00,meteohub,2013-08-09 06:25:00,
2013-08-09 01:30:00,66.7,60.1,29.97,SE,141,0.0,0.0,79,0.00,,,0.00,meteohub,2013-08-09 06:30:00,
2013-08-09 01:35:00,66.4,60.1,29.97,SE,141,0.0,0.0,80,0.00,,,0.00,meteohub,2013-08-09 06:35:00,
2013-08-09 01:40:00,66.0,59.7,29.97,SE,141,0.0,0.0,80,0.00,,,0.00,meteohub,2013-08-09 06:40:00,
2013-08-09 01:45:00,65.8,59.9,29.97,SE,141,0.0,0.0,81,0.00,,,0.00,meteohub,2013-08-09 06:45:00,
2013-08-09 01:50:00,65.5,59.9,29.97,SE,141,0.0,0.0,82,0.00,,,0.00,meteohub,2013-08-09 06:50:00,
2013-08-09 01:56:00,65.1,60.1,29.97,SE,141,0.0,0.0,84,0.00,,,0.00,meteohub,2013-08-09 06:56:00,
2013-08-09 02:01:00,64.8,60.1,29.97,SE,141,0.0,0.0,85,0.00,,,0.00,meteohub,2013-08-09 07:01:00,
2013-08-09 02:06:00,64.4,59.7,29.97,SE,141,0.0,0.0,85,0.00,,,0.00,meteohub,2013-08-09 07:06:00,
2013-08-09 02:11:00,64.2,59.9,29.96,SE,141,0.0,0.0,86,0.00,,,0.00,meteohub,2013-08-09 07:11:00,
2013-08-09 02:16:00,64.2,59.5,29.96,SE,141,0.0,0.0,85,0.00,,,0.00,meteohub,2013-08-09 07:16:00,
2013-08-09 02:21:00,64.2,59.5,29.96,SE,141,0.0,0.0,85,0.00,,,0.00,meteohub,2013-08-09 07:21:00,
2013-08-09 02:26:00,64.4,59.5,29.97,SE,141,0.0,0.0,84,0.00,,,0.00,meteohub,2013-08-09 07:26:00,
2013-08-09 02:31:00,64.2,59.9,29.97,SE,141,0.0,0.0,86,0.00,,,0.00,meteohub,2013-08-09 07:31:00,
2013-08-09 02:36:00,63.9,59.5,29.97,SE,141,0.0,0.0,86,0.00,,,0.00,meteohub,2013-08-09 07:36:00,
2013-08-09 02:41:00,63.9,59.9,29.97,SE,141,0.0,0.0,87,0.00,,,0.00,meteohub,2013-08-09 07:41:00,
2013-08-09 02:46:00,63.7,59.7,29.97,SE,141,0.0,0.0,87,0.00,,,0.00,meteohub,2013-08-09 07:46:00,
2013-08-09 02:51:00,63.3,59.7,29.97,SE,141,0.0,0.0,88,0.00,,,0.00,meteohub,2013-08-09 07:51:00,
2013-08-09 02:56:00,63.1,59.5,29.97,SE,141,0.0,0.0,88,0.00,,,0.00,meteohub,2013-08-09 07:56:00,
2013-08-09 03:01:00,63.0,58.6,29.97,SE,141,0.0,0.0,86,0.00,,,0.00,meteohub,2013-08-09 08:01:00,
2013-08-09 03:06:00,63.1,58.3,29.97,SE,141,0.0,0.0,84,0.00,,,0.00,meteohub,2013-08-09 08:06:00,
2013-08-09 03:11:00,63.3,59.4,29.97,SE,141,0.0,0.0,87,0.00,,,0.00,meteohub,2013-08-09 08:11:00,
2013-08-09 03:16:00,63.1,59.2,29.97,SE,141,0.0,0.0,87,0.00,,,0.00,meteohub,2013-08-09 08:16:00,
2013-08-09 03:21:00,62.8,59.2,29.97,SE,141,0.0,0.0,88,0.00,,,0.00,meteohub,2013-08-09 08:21:00,
2013-08-09 03:26:00,62.2,58.6,29.97,SE,141,0.0,0.0,88,0.00,,,0.00,meteohub,2013-08-09 08:26:00,
2013-08-09 03:32:00,62.1,58.8,29.97,SE,141,0.0,0.0,89,0.00,,,0.00,meteohub,2013-08-09 08:32:00,
2013-08-09 03:37:00,62.1,58.8,29.97,SE,141,0.0,0.0,89,0.00,,,0.00,meteohub,2013-08-09 08:37:00,
2013-08-09 03:42:00,62.1,59.2,29.98,SE,141,0.0,0.0,90,0.00,,,0.00,meteohub,2013-08-09 08:42:00,
2013-08-09 03:47:00,61.9,58.6,29.97,SE,141,0.0,0.0,89,0.00,,,0.00,meteohub,2013-08-09 08:47:00,
2013-08-09 03:52:00,61.5,58.3,29.97,SE,141,0.0,0.0,89,0.00,,,0.00,meteohub,2013-08-09 08:52:00,
2013-08-09 03:57:00,61.5,58.3,29.97,SE,141,0.0,0.0,89,0.00,,,0.00,meteohub,2013-08-09 08:57:00,
2013-08-09 04:02:00,61.3,58.5,29.97,SE,141,0.0,0.0,90,0.00,,,0.00,meteohub,2013-08-09 09:02:00,
2013-08-09 04:07:00,61.2,58.3,29.97,SE,141,0.0,0.0,90,0.00,,,0.00,meteohub,2013-08-09 09:07:00,
2013-08-09 04:12:00,61.0,58.1,29.98,SE,141,0.0,0.0,90,0.00,,,0.00,meteohub,2013-08-09 09:12:00,
2013-08-09 04:17:00,61.0,58.1,29.98,SE,141,0.0,0.0,90,0.00,,,0.00,meteohub,2013-08-09 09:17:00,
2013-08-09 04:22:00,60.8,57.9,29.98,SE,141,0.0,0.0,90,0.00,,,0.00,meteohub,2013-08-09 09:22:00,
2013-08-09 04:27:00,60.6,57.7,29.97,SE,141,0.0,0.0,90,0.00,,,0.00,meteohub,2013-08-09 09:27:00,
2013-08-09 04:32:00,60.6,57.9,29.97,SE,141,0.0,0.0,91,0.00,,,0.00,meteohub,2013-08-09 09:32:00,
2013-08-09 04:37:00,60.6,57.9,29.97,SE,141,0.0,0.0,91,0.00,,,0.00,meteohub,2013-08-09 09:37:00,
2013-08-09 04:42:00,60.4,57.7,29.97,SE,141,0.0,0.0,91,0.00,,,0.00,meteohub,2013-08-09 09:42:00,
2013-08-09 04:47:00,60.3,57.6,29.97,SE,141,0.0,0.0,91,0.00,,,0.00,meteohub,2013-08-09 09:47:00,
2013-08-09 04:52:00,60.3,57.6,29.97,SE,141,0.0,0.0,91,0.00,,,0.00,meteohub,2013-08-09 09:52:00,
2013-08-09 04:57:00,60.1,57.4,29.97,SE,141,0.0,0.0,91,0.00,,,0.00,meteohub,2013-08-09 09:57:00,
2013-08-09 05:02:00,60.1,57.4,29.97,SE,141,0.0,0.0,91,0.00,,,0.00,meteohub,2013-08-09 10:02:00,
2013-08-09 05:07:00,60.1,57.7,29.97,SE,141,0.0,0.0,92,0.00,,,0.00,meteohub,2013-08-09 10:07:00,
2013-08-09 05:12:00,59.9,57.6,29.98,SE,141,0.0,0.0,92,0.00,,,0.00,meteohub,2013-08-09 10:12:00,
2013-08-09 05:17:00,59.7,57.4,29.98,SE,141,0.0,0.0,92,0.00,,,0.00,meteohub,2013-08-09 10:17:00,
2013-08-09 05:22:00,59.7,57.4,29.98,SE,141,0.0,0.0,92,0.00,,,0.00,meteohub,2013-08-09 10:22:00,
2013-08-09 05:27:00,59.7,57.4,29.98,SE,141,0.0,0.0,92,0.00,,,0.00,meteohub,2013-08-09 10:27:00,
2013-08-09 05:32:00,59.7,57.4,29.99,SE,141,0.0,0.0,92,0.00,,,0.00,meteohub,2013-08-09 10:32:00,
2013-08-09 05:37:00,59.7,57.4,29.99,SE,141,0.0,0.0,92,0.00,,,0.00,meteohub,2013-08-09 10:37:00,
2013-08-09 05:42:00,59.5,57.2,29.99,SE,141,0.0,0.0,92,0.00,,,0.00,meteohub,2013-08-09 10:42:00,
2013-08-09 05:47:00,59.5,56.8,29.99,SE,141,0.0,0.0,91,0.00,,,0.00,meteohub,2013-08-09 10:47:00,
2013-08-09 05:52:00,59.4,57.0,29.99,SE,141,0.0,0.0,92,0.00,,,0.00,meteohub,2013-08-09 10:52:00,
2013-08-09 05:57:00,59.4,57.0,29.99,SE,141,0.0,0.0,92,0.00,,,0.00,meteohub,2013-08-09 10:57:00,
2013-08-09 06:02:00,59.2,56.8,29.99,SE,141,0.0,0.0,92,0.00,,,0.00,meteohub,2013-08-09 11:02:00,
2013-08-09 06:07:00,59.4,57.0,30.00,SE,141,0.0,0.0,92,0.00,,,0.00,meteohub,2013-08-09 11:07:00,
2013-08-09 06:12:00,59.2,56.8,30.00,SE,141,0.0,0.0,92,0.00,,,0.00,meteohub,2013-08-09 11:12:00,
2013-08-09 06:17:00,59.2,56.8,30.00,SE,141,0.0,0.0,92,0.00,,,0.00,meteohub,2013-08-09 11:17:00,
2013-08-09 06:22:00,59.2,56.8,30.00,SE,141,0.0,0.0,92,0.00,,,0.00,meteohub,2013-08-09 11:22:00,
2013-08-09 06:27:00,59.0,56.7,30.00,SE,141,0.0,0.0,92,0.00,,,0.00,meteohub,2013-08-09 11:27:00,
2013-08-09 06:32:00,59.2,56.8,29.99,SE,141,0.0,0.0,92,0.00,,,0.00,meteohub,2013-08-09 11:32:00,
2013-08-09 06:37:00,59.2,57.2,30.00,SE,141,0.0,0.0,93,0.00,,,0.00,meteohub,2013-08-09 11:37:00,
2013-08-09 06:42:00,59.4,57.4,29.99,SE,141,0.0,0.0,93,0.00,,,0.00,meteohub,2013-08-09 11:42:00,
2013-08-09 06:47:00,59.4,57.4,30.00,SE,141,0.0,0.0,93,0.00,,,0.00,meteohub,2013-08-09 11:47:00,
2013-08-09 06:52:00,59.5,57.6,30.00,SE,141,0.0,0.0,93,0.00,,,0.00,meteohub,2013-08-09 11:52:00,
2013-08-09 06:57:00,59.5,57.6,30.00,SE,141,0.0,0.0,93,0.00,,,0.00,meteohub,2013-08-09 11:57:00,
2013-08-09 07:02:00,59.5,57.6,30.00,SE,141,0.0,0.0,93,0.00,,,0.00,meteohub,2013-08-09 12:02:00,
2013-08-09 07:07:00,59.7,57.7,30.00,SE,141,0.0,0.0,93,0.00,,,0.00,meteohub,2013-08-09 12:07:00,
2013-08-09 07:12:00,59.7,57.7,30.00,SE,141,0.0,0.0,93,0.00,,,0.00,meteohub,2013-08-09 12:12:00,
2013-08-09 07:17:00,60.1,58.1,30.00,SE,141,0.0,0.0,93,0.00,,,0.00,meteohub,2013-08-09 12:17:00,
2013-08-09 07:22:00,60.4,58.5,30.00,SE,141,0.0,0.0,93,0.00,,,0.00,meteohub,2013-08-09 12:22:00,
2013-08-09 07:27:00,60.6,58.6,30.00,SE,141,0.0,0.0,93,0.00,,,0.00,meteohub,2013-08-09 12:27:00,
2013-08-09 07:32:00,61.2,58.8,30.00,SE,141,0.0,0.0,92,0.00,,,0.00,meteohub,2013-08-09 12:32:00,
2013-08-09 07:37:00,61.5,58.8,30.00,SE,141,0.0,0.0,91,0.00,,,0.00,meteohub,2013-08-09 12:37:00,
2013-08-09 07:42:00,62.1,59.2,29.99,SE,141,0.0,0.0,90,0.00,,,0.00,meteohub,2013-08-09 12:42:00,
2013-08-09 07:47:00,62.6,59.4,29.99,SE,141,0.0,0.0,89,0.00,,,0.00,meteohub,2013-08-09 12:47:00,
2013-08-09 07:52:00,63.1,59.9,30.00,SE,141,0.0,0.0,89,0.00,,,0.00,meteohub,2013-08-09 12:52:00,
2013-08-09 07:57:00,63.7,60.4,30.00,SE,141,0.0,0.0,89,0.00,,,0.00,meteohub,2013-08-09 12:57:00,
2013-08-09 08:02:00,64.2,60.3,30.00,SE,141,0.0,0.0,87,0.00,,,0.00,meteohub,2013-08-09 13:02:00,
2013-08-09 08:07:00,64.9,59.9,30.00,SE,141,0.0,0.0,84,0.00,,,0.00,meteohub,2013-08-09 13:07:00,
2013-08-09 08:12:00,65.5,59.9,30.00,SE,141,0.0,0.0,82,0.00,,,0.00,meteohub,2013-08-09 13:12:00,
2013-08-09 08:17:00,65.8,59.9,30.00,SE,141,0.0,0.0,81,0.00,,,0.00,meteohub,2013-08-09 13:17:00,
2013-08-09 08:22:00,66.4,60.1,30.01,SE,141,0.0,0.0,80,0.00,,,0.00,meteohub,2013-08-09 13:22:00,
2013-08-09 08:27:00,66.7,59.7,30.01,SE,141,0.0,0.0,78,0.00,,,0.00,meteohub,2013-08-09 13:27:00,
2013-08-09 08:32:00,66.9,59.2,30.01,SE,141,0.0,0.0,76,0.00,,,0.00,meteohub,2013-08-09 13:32:00,
2013-08-09 08:37:00,67.5,60.1,30.01,SE,141,0.0,0.0,77,0.00,,,0.00,meteohub,2013-08-09 13:37:00,
2013-08-09 08:42:00,67.6,59.0,30.01,SE,141,0.0,0.0,74,0.00,,,0.00,meteohub,2013-08-09 13:42:00,
2013-08-09 08:47:00,68.0,58.3,30.01,SE,141,0.0,0.0,71,0.00,,,0.00,meteohub,2013-08-09 13:47:00,
2013-08-09 08:52:00,68.5,58.3,30.01,SE,141,0.0,0.0,70,0.00,,,0.00,meteohub,2013-08-09 13:52:00,
2013-08-09 08:57:00,68.9,57.9,30.01,SE,141,0.0,0.0,68,0.00,,,0.00,meteohub,2013-08-09 13:57:00,
2013-08-09 09:02:00,69.3,59.0,30.01,SE,141,0.0,0.0,70,0.00,,,0.00,meteohub,2013-08-09 14:02:00,
2013-08-09 09:07:00,69.6,59.4,30.01,SE,141,0.0,0.0,70,0.00,,,0.00,meteohub,2013-08-09 14:07:00,
2013-08-09 09:12:00,70.2,59.9,30.01,SE,141,0.0,0.0,70,0.00,,,0.00,meteohub,2013-08-09 14:12:00,
2013-08-09 09:17:00,70.5,60.6,30.01,SE,141,0.0,0.0,71,0.00,,,0.00,meteohub,2013-08-09 14:17:00,
2013-08-09 09:22:00,70.9,61.3,30.01,SE,141,0.0,0.0,72,0.00,,,0.00,meteohub,2013-08-09 14:22:00,
2013-08-09 09:27:00,71.1,60.8,30.01,SE,141,0.0,0.0,70,0.00,,,0.00,meteohub,2013-08-09 14:27:00,
2013-08-09 09:32:00,71.6,60.8,30.01,SE,141,0.0,0.0,69,0.00,,,0.00,meteohub,2013-08-09 14:32:00,
2013-08-09 09:37:00,71.8,61.0,30.01,SE,141,0.0,0.0,69,0.00,,,0.00,meteohub,2013-08-09 14:37:00,
2013-08-09 09:42:00,72.0,60.4,30.01,SE,141,0.0,0.0,67,0.00,,,0.00,meteohub,2013-08-09 14:42:00,
2013-08-09 09:47:00,72.3,59.5,30.01,SE,141,0.0,0.0,64,0.00,,,0.00,meteohub,2013-08-09 14:47:00,
2013-08-09 09:52:00,72.9,59.9,30.01,SE,141,0.0,0.0,64,0.00,,,0.00,meteohub,2013-08-09 14:52:00,
2013-08-09 09:57:00,73.0,61.5,30.01,SE,141,0.0,0.0,67,0.00,,,0.00,meteohub,2013-08-09 14:57:00,
2013-08-09 10:02:00,73.2,59.0,30.02,SE,141,0.0,0.0,61,0.00,,,0.00,meteohub,2013-08-09 15:02:00,
2013-08-09 10:07:00,73.6,61.9,30.02,SE,141,0.0,0.0,67,0.00,,,0.00,meteohub,2013-08-09 15:07:00,
2013-08-09 10:12:00,73.0,61.9,30.02,South,190,0.0,0.0,68,0.00,,,0.00,meteohub,2013-08-09 15:12:00,
2013-08-09 10:18:00,73.0,61.5,30.02,South,190,0.0,0.0,67,0.00,,,0.00,meteohub,2013-08-09 15:18:00,
2013-08-09 10:23:00,73.2,61.2,30.01,South,190,0.0,0.0,66,0.00,,,0.00,meteohub,2013-08-09 15:23:00,
2013-08-09 10:28:00,73.8,61.7,30.01,South,190,0.0,0.0,66,0.00,,,0.00,meteohub,2013-08-09 15:28:00,
2013-08-09 10:33:00,74.1,61.5,30.01,South,190,0.0,0.0,65,0.00,,,0.00,meteohub,2013-08-09 15:33:00,
2013-08-09 10:38:00,74.1,62.4,30.02,South,190,0.0,0.0,67,0.00,,,0.00,meteohub,2013-08-09 15:38:00,
2013-08-09 10:43:00,74.5,62.4,30.02,South,190,0.0,0.0,66,0.00,,,0.00,meteohub,2013-08-09 15:43:00,
2013-08-09 10:48:00,74.7,61.7,30.02,South,190,0.0,0.0,64,0.00,,,0.00,meteohub,2013-08-09 15:48:00,
2013-08-09 10:53:00,75.0,61.5,30.02,ESE,107,0.0,0.0,63,0.00,,,0.00,meteohub,2013-08-09 15:53:00,
2013-08-09 10:58:00,75.0,61.5,30.02,ESE,107,0.0,0.0,63,0.00,,,0.00,meteohub,2013-08-09 15:58:00,
2013-08-09 11:03:00,75.6,62.1,30.02,ESE,107,0.0,0.0,63,0.00,,,0.00,meteohub,2013-08-09 16:03:00,
2013-08-09 11:08:00,75.7,62.8,30.02,ESE,119,0.0,0.0,64,0.00,,,0.00,meteohub,2013-08-09 16:08:00,
2013-08-09 11:13:00,76.1,63.0,30.02,ESE,119,0.0,0.0,64,0.00,,,0.00,meteohub,2013-08-09 16:13:00,
2013-08-09 11:18:00,76.5,63.3,30.02,ESE,119,0.0,0.0,64,0.00,,,0.00,meteohub,2013-08-09 16:18:00,
2013-08-09 11:23:00,76.5,63.9,30.02,ESE,118,0.0,0.0,65,0.00,,,0.00,meteohub,2013-08-09 16:23:00,
2013-08-09 11:28:00,76.5,63.3,30.02,ENE,74,0.0,0.0,64,0.00,,,0.00,meteohub,2013-08-09 16:28:00,
2013-08-09 11:33:00,76.6,63.1,30.02,ESE,103,0.0,0.0,63,0.00,,,0.00,meteohub,2013-08-09 16:33:00,
2013-08-09 11:39:00,76.8,63.7,30.02,East,101,0.0,0.0,64,0.00,,,0.00,meteohub,2013-08-09 16:39:00,
2013-08-09 11:44:00,77.2,63.7,30.02,ESE,118,0.0,0.0,63,0.00,,,0.00,meteohub,2013-08-09 16:44:00,
2013-08-09 11:49:00,77.2,64.0,30.02,ESE,123,0.0,0.0,64,0.00,,,0.00,meteohub,2013-08-09 16:49:00,
2013-08-09 11:54:00,77.2,65.3,30.02,South,170,0.0,0.0,67,0.00,,,0.00,meteohub,2013-08-09 16:54:00,
2013-08-09 11:59:00,77.2,64.9,30.02,South,180,0.0,0.0,66,0.00,,,0.00,meteohub,2013-08-09 16:59:00,
2013-08-09 12:04:00,77.5,63.9,30.02,ESE,110,0.0,0.0,63,0.00,,,0.00,meteohub,2013-08-09 17:04:00,
2013-08-09 12:09:00,77.7,64.0,30.02,East,79,0.0,0.0,63,0.00,,,0.00,meteohub,2013-08-09 17:09:00,
2013-08-09 12:14:00,77.9,65.1,30.01,ENE,72,0.0,0.0,65,0.00,,,0.00,meteohub,2013-08-09 17:14:00,
2013-08-09 12:19:00,78.3,65.1,30.01,SSW,209,0.0,0.0,64,0.00,,,0.00,meteohub,2013-08-09 17:19:00,
2013-08-09 12:24:00,78.4,64.8,30.01,SSW,209,0.0,0.0,63,0.00,,,0.00,meteohub,2013-08-09 17:24:00,
2013-08-09 12:29:00,78.3,64.2,30.01,SW,229,0.0,0.0,62,0.00,,,0.00,meteohub,2013-08-09 17:29:00,
2013-08-09 12:34:00,77.9,65.1,30.01,SW,236,0.0,0.0,65,0.00,,,0.00,meteohub,2013-08-09 17:34:00,
2013-08-09 12:39:00,78.3,65.5,30.01,SW,236,0.0,0.0,65,0.00,,,0.00,meteohub,2013-08-09 17:39:00,
2013-08-09 12:44:00,78.6,64.9,30.01,SW,236,0.0,0.0,63,0.00,,,0.00,meteohub,2013-08-09 17:44:00,
2013-08-09 12:49:00,79.2,66.4,30.01,SW,236,0.0,0.0,65,0.00,,,0.00,meteohub,2013-08-09 17:49:00,
2013-08-09 12:54:00,79.3,64.8,30.01,WSW,238,0.0,0.0,61,0.00,,,0.00,meteohub,2013-08-09 17:54:00,
2013-08-09 12:59:00,79.3,65.1,30.01,WSW,238,0.0,0.0,62,0.00,,,0.00,meteohub,2013-08-09 17:59:00,
2013-08-09 13:04:00,79.0,63.5,30.01,WSW,238,0.0,0.0,59,0.00,,,0.00,meteohub,2013-08-09 18:04:00,
2013-08-09 13:10:00,78.6,64.6,30.01,WSW,238,0.0,0.0,62,0.00,,,0.00,meteohub,2013-08-09 18:10:00,
2013-08-09 13:15:00,78.6,64.9,30.01,East,95,0.0,0.0,63,0.00,,,0.00,meteohub,2013-08-09 18:15:00,
2013-08-09 13:20:00,79.3,66.6,30.01,East,95,0.0,0.0,65,0.00,,,0.00,meteohub,2013-08-09 18:20:00,
2013-08-09 13:25:00,79.5,64.4,30.01,East,95,0.0,0.0,60,0.00,,,0.00,meteohub,2013-08-09 18:25:00,
2013-08-09 13:30:00,78.8,65.1,30.01,SSE,150,0.0,0.0,63,0.00,,,0.00,meteohub,2013-08-09 18:30:00,
2013-08-09 13:35:00,78.3,63.7,30.01,SSE,150,0.0,0.0,61,0.00,,,0.00,meteohub,2013-08-09 18:35:00,
2013-08-09 13:40:00,78.4,66.6,30.01,SSE,150,0.0,0.0,67,0.00,,,0.00,meteohub,2013-08-09 18:40:00,
2013-08-09 13:45:00,78.6,65.5,30.01,SSE,160,0.0,0.0,64,0.00,,,0.00,meteohub,2013-08-09 18:45:00,
2013-08-09 13:50:00,78.4,65.7,30.01,SSE,166,0.0,0.0,65,0.00,,,0.00,meteohub,2013-08-09 18:50:00,
2013-08-09 13:55:00,78.4,64.4,30.01,SSE,166,0.0,0.0,62,0.00,,,0.00,meteohub,2013-08-09 18:55:00,
2013-08-09 14:00:00,78.4,63.9,30.01,SSE,166,0.0,0.0,61,0.00,,,0.00,meteohub,2013-08-09 19:00:00,
2013-08-09 14:05:00,78.4,63.9,30.00,SSE,166,0.0,0.0,61,0.00,,,0.00,meteohub,2013-08-09 19:05:00,
2013-08-09 14:11:00,78.4,66.2,30.00,SSE,166,0.0,0.0,66,0.00,,,0.00,meteohub,2013-08-09 19:11:00,
2013-08-09 14:16:00,78.3,64.2,30.00,SSW,196,0.0,0.0,62,0.00,,,0.00,meteohub,2013-08-09 19:16:00,
2013-08-09 14:21:00,78.4,65.3,30.00,SSW,199,0.0,0.0,64,0.00,,,0.00,meteohub,2013-08-09 19:21:00,
2013-08-09 14:26:00,78.6,64.9,30.00,SSW,198,0.0,0.0,63,0.00,,,0.00,meteohub,2013-08-09 19:26:00,
2013-08-09 14:31:00,78.6,65.8,30.00,SSW,198,0.0,0.0,65,0.00,,,0.00,meteohub,2013-08-09 19:31:00,
2013-08-09 14:36:00,78.8,68.2,30.00,SSW,202,0.0,0.0,70,0.00,,,0.00,meteohub,2013-08-09 19:36:00,
2013-08-09 14:41:00,78.3,65.5,30.01,SSW,202,0.0,0.0,65,0.00,,,0.00,meteohub,2013-08-09 19:41:00,
2013-08-09 14:46:00,77.4,69.6,30.01,SSW,202,0.0,0.0,77,0.00,,,0.00,meteohub,2013-08-09 19:46:00,
2013-08-09 14:51:00,78.1,64.9,30.01,SSW,202,0.0,0.0,64,0.00,,,0.00,meteohub,2013-08-09 19:51:00,
2013-08-09 14:56:00,78.1,66.2,30.01,SSW,202,0.0,0.0,67,0.00,,,0.00,meteohub,2013-08-09 19:56:00,
2013-08-09 15:01:00,78.3,65.5,30.01,SSW,202,0.0,0.0,65,0.00,,,0.00,meteohub,2013-08-09 20:01:00,
2013-08-09 15:06:00,78.3,64.6,30.01,SSW,202,0.0,0.0,63,0.00,,,0.00,meteohub,2013-08-09 20:06:00,
2013-08-09 15:11:00,78.4,66.2,30.01,SSW,202,0.0,0.0,66,0.00,,,0.00,meteohub,2013-08-09 20:11:00,
2013-08-09 15:17:00,78.1,67.1,30.01,SSW,202,0.0,0.0,69,0.00,,,0.00,meteohub,2013-08-09 20:17:00,
2013-08-09 15:22:00,77.5,66.9,30.01,SSW,202,0.0,0.0,70,0.00,,,0.00,meteohub,2013-08-09 20:22:00,
2013-08-09 15:27:00,78.1,67.1,30.01,SSW,202,0.0,0.0,69,0.00,,,0.00,meteohub,2013-08-09 20:27:00,
2013-08-09 15:32:00,78.3,65.5,30.01,SSW,202,0.0,0.0,65,0.00,,,0.00,meteohub,2013-08-09 20:32:00,
2013-08-09 15:37:00,78.4,66.2,30.00,SSW,202,0.0,0.0,66,0.00,,,0.00,meteohub,2013-08-09 20:37:00,
2013-08-09 15:42:00,78.4,65.7,30.00,SSW,202,0.0,0.0,65,0.00,,,0.00,meteohub,2013-08-09 20:42:00,
2013-08-09 15:47:00,78.3,67.3,30.00,SSW,202,0.0,0.0,69,0.00,,,0.00,meteohub,2013-08-09 20:47:00,
2013-08-09 15:52:00,78.3,66.7,30.00,SSW,202,0.0,0.0,68,0.00,,,0.00,meteohub,2013-08-09 20:52:00,
2013-08-09 15:57:00,78.1,69.4,30.00,SSW,202,0.0,0.0,75,0.00,,,0.00,meteohub,2013-08-09 20:57:00,
2013-08-09 16:02:00,77.9,69.3,30.01,SSW,202,0.0,0.0,75,0.00,,,0.00,meteohub,2013-08-09 21:02:00,
2013-08-09 16:07:00,78.1,67.5,30.01,SSW,202,0.0,0.0,70,0.00,,,0.00,meteohub,2013-08-09 21:07:00,
2013-08-09 16:12:00,78.3,66.4,30.00,SSW,202,0.0,0.0,67,0.00,,,0.00,meteohub,2013-08-09 21:12:00,
2013-08-09 16:17:00,78.4,66.9,30.01,SSW,202,0.0,0.0,68,0.00,,,0.00,meteohub,2013-08-09 21:17:00,
2013-08-09 16:22:00,77.7,65.8,30.01,SSW,202,0.0,0.0,67,0.00,,,0.00,meteohub,2013-08-09 21:22:00,
2013-08-09 16:27:00,78.3,66.0,30.00,SSW,202,0.0,0.0,66,0.00,,,0.00,meteohub,2013-08-09 21:27:00,
2013-08-09 16:32:00,77.9,66.9,30.00,SSW,202,0.0,0.0,69,0.00,,,0.00,meteohub,2013-08-09 21:32:00,
2013-08-09 16:37:00,77.9,66.0,30.00,SSW,202,0.0,0.0,67,0.00,,,0.00,meteohub,2013-08-09 21:37:00,
2013-08-09 16:42:00,77.7,65.5,30.00,SSW,202,0.0,0.0,66,0.00,,,0.00,meteohub,2013-08-09 21:42:00,
2013-08-09 16:47:00,77.5,66.6,30.00,SSW,202,0.0,0.0,69,0.00,,,0.00,meteohub,2013-08-09 21:47:00,
2013-08-09 16:52:00,77.5,66.9,30.00,SSW,202,0.0,0.0,70,0.00,,,0.00,meteohub,2013-08-09 21:52:00,
2013-08-09 16:57:00,77.5,68.2,30.00,SSW,202,0.0,0.0,73,0.00,,,0.00,meteohub,2013-08-09 21:57:00,
2013-08-09 17:02:00,77.4,66.7,30.00,SSW,202,0.0,0.0,70,0.00,,,0.00,meteohub,2013-08-09 22:02:00,
2013-08-09 17:07:00,77.5,68.5,30.00,SSW,202,0.0,0.0,74,0.00,,,0.00,meteohub,2013-08-09 22:07:00,
2013-08-09 17:12:00,76.8,67.8,30.00,SSW,202,0.0,0.0,74,0.00,,,0.00,meteohub,2013-08-09 22:12:00,
2013-08-09 17:17:00,77.2,67.5,30.00,SSW,202,0.0,0.0,72,0.00,,,0.00,meteohub,2013-08-09 22:17:00,
2013-08-09 17:22:00,77.5,68.5,29.99,SSW,202,0.0,0.0,74,0.00,,,0.00,meteohub,2013-08-09 22:22:00,
2013-08-09 17:27:00,77.9,67.8,29.99,SSW,202,0.0,0.0,71,0.00,,,0.00,meteohub,2013-08-09 22:27:00,
2013-08-09 17:32:00,77.9,66.9,29.99,SSW,202,0.0,0.0,69,0.00,,,0.00,meteohub,2013-08-09 22:32:00,
2013-08-09 17:37:00,77.4,67.6,29.99,SSW,202,0.0,0.0,72,0.00,,,0.00,meteohub,2013-08-09 22:37:00,
2013-08-09 17:42:00,77.2,68.2,29.99,SSW,202,0.0,0.0,74,0.00,,,0.00,meteohub,2013-08-09 22:42:00,
2013-08-09 17:47:00,76.8,67.8,29.99,SSW,202,0.0,0.0,74,0.00,,,0.00,meteohub,2013-08-09 22:47:00,
2013-08-09 17:52:00,76.8,68.7,29.99,SSW,202,0.0,0.0,76,0.00,,,0.00,meteohub,2013-08-09 22:52:00,
2013-08-09 17:57:00,76.8,68.4,29.99,SSW,202,0.0,0.0,75,0.00,,,0.00,meteohub,2013-08-09 22:57:00,
2013-08-09 18:02:00,76.8,67.8,29.99,SSW,202,0.0,0.0,74,0.00,,,0.00,meteohub,2013-08-09 23:02:00,
2013-08-09 18:07:00,76.5,69.1,29.99,SSW,202,0.0,0.0,78,0.00,,,0.00,meteohub,2013-08-09 23:07:00,
2013-08-09 18:12:00,76.1,69.1,29.99,SSW,202,0.0,0.0,79,0.00,,,0.00,meteohub,2013-08-09 23:12:00,
2013-08-09 18:17:00,75.7,70.5,29.99,SSW,202,0.0,0.0,84,0.00,,,0.00,meteohub,2013-08-09 23:17:00,
2013-08-09 18:22:00,75.7,68.4,29.99,SSW,202,0.0,0.0,78,0.00,,,0.00,meteohub,2013-08-09 23:22:00,
2013-08-09 18:27:00,75.7,69.1,29.99,SSW,202,0.0,0.0,80,0.00,,,0.00,meteohub,2013-08-09 23:27:00,
2013-08-09 18:32:00,75.7,68.7,29.99,SSW,202,0.0,0.0,79,0.00,,,0.00,meteohub,2013-08-09 23:32:00,
2013-08-09 18:37:00,75.7,69.1,29.99,SSW,202,0.0,0.0,80,0.00,,,0.00,meteohub,2013-08-09 23:37:00,
2013-08-09 18:42:00,75.6,68.9,29.99,SSW,202,0.0,0.0,80,0.00,,,0.00,meteohub,2013-08-09 23:42:00,
2013-08-09 18:47:00,75.6,68.9,29.99,SSW,202,0.0,0.0,80,0.00,,,0.00,meteohub,2013-08-09 23:47:00,
2013-08-09 18:52:00,75.4,69.1,29.99,SSW,202,0.0,0.0,81,0.00,,,0.00,meteohub,2013-08-09 23:52:00,
2013-08-09 18:57:00,75.0,69.8,29.99,SSW,202,0.0,0.0,84,0.00,,,0.00,meteohub,2013-08-09 23:57:00,
2013-08-09 19:02:00,74.7,68.4,29.99,SSW,202,0.0,0.0,81,0.00,,,0.00,meteohub,2013-08-10 00:02:00,
2013-08-09 19:07:00,74.8,68.2,29.99,SSW,202,0.0,0.0,80,0.00,,,0.00,meteohub,2013-08-10 00:07:00,
2013-08-09 19:12:00,74.7,69.8,29.99,SSW,202,0.0,0.0,85,0.00,,,0.00,meteohub,2013-08-10 00:12:00,
2013-08-09 19:17:00,74.1,69.6,29.99,SSW,202,0.0,0.0,86,0.00,,,0.00,meteohub,2013-08-10 00:17:00,
2013-08-09 19:22:00,73.9,68.2,29.99,SSW,202,0.0,0.0,82,0.00,,,0.00,meteohub,2013-08-10 00:22:00,
2013-08-09 19:27:00,74.1,68.5,29.99,SSW,202,0.0,0.0,83,0.00,,,0.00,meteohub,2013-08-10 00:27:00,
2013-08-09 19:32:00,73.9,68.2,29.99,SSW,202,0.0,0.0,82,0.00,,,0.00,meteohub,2013-08-10 00:32:00,
2013-08-09 19:37:00,73.8,68.5,29.99,SSW,202,0.0,0.0,84,0.00,,,0.00,meteohub,2013-08-10 00:37:00,
2013-08-09 19:42:00,73.6,68.2,29.99,SSW,202,0.0,0.0,83,0.00,,,0.00,meteohub,2013-08-10 00:42:00,
2013-08-09 19:48:00,73.4,68.0,29.99,SSW,202,0.0,0.0,83,0.00,,,0.00,meteohub,2013-08-10 00:48:00,
2013-08-09 19:53:00,73.2,68.2,29.99,SSW,202,0.0,0.0,84,0.00,,,0.00,meteohub,2013-08-10 00:53:00,
2013-08-09 19:58:00,73.0,68.5,29.99,SSW,202,0.0,0.0,86,0.00,,,0.00,meteohub,2013-08-10 00:58:00,
2013-08-09 20:03:00,72.5,68.0,29.99,SSW,202,0.0,0.0,86,0.00,,,0.00,meteohub,2013-08-10 01:03:00,
2013-08-09 20:08:00,72.7,67.8,29.99,SSW,202,0.0,0.0,85,0.00,,,0.00,meteohub,2013-08-10 01:08:00,
2013-08-09 20:13:00,72.7,68.2,29.99,SSW,202,0.0,0.0,86,0.00,,,0.00,meteohub,2013-08-10 01:13:00,
2013-08-09 20:18:00,72.3,68.2,29.99,SSW,202,0.0,0.0,87,0.00,,,0.00,meteohub,2013-08-10 01:18:00,
2013-08-09 20:23:00,72.0,67.8,30.00,SSW,202,0.0,0.0,87,0.00,,,0.00,meteohub,2013-08-10 01:23:00,
2013-08-09 20:28:00,71.8,68.0,30.00,SSW,202,0.0,0.0,88,0.00,,,0.00,meteohub,2013-08-10 01:28:00,
2013-08-09 20:33:00,71.4,67.6,30.00,SSW,202,0.0,0.0,88,0.00,,,0.00,meteohub,2013-08-10 01:33:00,
2013-08-09 20:38:00,71.4,68.0,30.00,SSW,202,0.0,0.0,89,0.00,,,0.00,meteohub,2013-08-10 01:38:00,
2013-08-09 20:43:00,71.2,67.8,30.01,SSW,202,0.0,0.0,89,0.00,,,0.00,meteohub,2013-08-10 01:43:00,
2013-08-09 20:48:00,71.1,67.6,30.01,SSW,202,0.0,0.0,89,0.00,,,0.00,meteohub,2013-08-10 01:48:00,
2013-08-09 20:53:00,71.1,67.3,30.01,SSW,202,0.0,0.0,88,0.00,,,0.00,meteohub,2013-08-10 01:53:00,
2013-08-09 20:58:00,71.2,67.8,30.01,SSW,202,0.0,0.0,89,0.00,,,0.00,meteohub,2013-08-10 01:58:00,
2013-08-09 21:03:00,71.2,67.5,30.01,SSW,202,0.0,0.0,88,0.00,,,0.00,meteohub,2013-08-10 02:03:00,
2013-08-09 21:08:00,70.9,67.5,30.01,SSW,202,0.0,0.0,89,0.00,,,0.00,meteohub,2013-08-10 02:08:00,
2013-08-09 21:13:00,70.9,67.5,30.02,SSW,202,0.0,0.0,89,0.00,,,0.00,meteohub,2013-08-10 02:13:00,
2013-08-09 21:18:00,70.5,67.1,30.02,SSW,202,0.0,0.0,89,0.00,,,0.00,meteohub,2013-08-10 02:18:00,
2013-08-09 21:24:00,70.5,67.1,30.02,SSW,202,0.0,0.0,89,0.00,,,0.00,meteohub,2013-08-10 02:24:00,
2013-08-09 21:29:00,70.5,67.1,30.02,SSW,202,0.0,0.0,89,0.00,,,0.00,meteohub,2013-08-10 02:29:00,
2013-08-09 21:34:00,70.5,67.1,30.03,SSW,202,0.0,0.0,89,0.00,,,0.00,meteohub,2013-08-10 02:34:00,
2013-08-09 21:39:00,70.3,66.9,30.03,SSW,202,0.0,0.0,89,0.00,,,0.00,meteohub,2013-08-10 02:39:00,
2013-08-09 21:44:00,70.3,66.6,30.03,SSW,202,0.0,0.0,88,0.00,,,0.00,meteohub,2013-08-10 02:44:00,
2013-08-09 21:49:00,70.3,66.9,30.03,SSW,202,0.0,0.0,89,0.00,,,0.00,meteohub,2013-08-10 02:49:00,
2013-08-09 21:54:00,70.2,66.7,30.03,SSW,202,0.0,0.0,89,0.00,,,0.00,meteohub,2013-08-10 02:54:00,
2013-08-09 21:59:00,70.0,66.6,30.02,SSW,202,0.0,0.0,89,0.00,,,0.00,meteohub,2013-08-10 02:59:00,
2013-08-09 22:04:00,69.8,66.4,30.02,SSW,202,0.0,0.0,89,0.00,,,0.00,meteohub,2013-08-10 03:04:00,
2013-08-09 22:09:00,70.0,66.9,30.02,SSW,202,0.0,0.0,90,0.00,,,0.00,meteohub,2013-08-10 03:09:00,
2013-08-09 22:14:00,69.4,66.4,30.02,SSW,202,0.0,0.0,90,0.00,,,0.00,meteohub,2013-08-10 03:14:00,
2013-08-09 22:19:00,69.1,66.4,30.03,SSW,202,0.0,0.0,91,0.00,,,0.00,meteohub,2013-08-10 03:19:00,
2013-08-09 22:25:00,69.1,66.4,30.03,SSW,202,0.0,0.0,91,0.00,,,0.00,meteohub,2013-08-10 03:25:00,
2013-08-09 22:30:00,68.7,66.4,30.03,SSW,202,0.0,0.0,92,0.00,,,0.00,meteohub,2013-08-10 03:30:00,
2013-08-09 22:35:00,68.5,66.2,30.03,SSW,202,0.0,0.0,92,0.00,,,0.00,meteohub,2013-08-10 03:35:00,
2013-08-09 22:40:00,68.7,66.4,30.03,SSW,202,0.0,0.0,92,0.00,,,0.00,meteohub,2013-08-10 03:40:00,
2013-08-09 22:45:00,68.7,66.4,30.04,SSW,202,0.0,0.0,92,0.00,,,0.00,meteohub,2013-08-10 03:45:00,
2013-08-09 22:50:00,69.1,66.7,30.04,SSW,202,0.0,0.0,92,0.00,,,0.00,meteohub,2013-08-10 03:50:00,
2013-08-09 22:55:00,69.3,66.6,30.04,SSW,202,0.0,0.0,91,0.00,,,0.00,meteohub,2013-08-10 03:55:00,
2013-08-09 23:00:00,69.3,66.6,30.04,SSW,202,0.0,0.0,91,0.00,,,0.00,meteohub,2013-08-10 04:00:00,
2013-08-09 23:01:00,69.4,66.7,30.04,SSW,202,0.0,0.0,91,0.00,,,0.00,meteohub,2013-08-10 04:01:00,
2013-08-09 23:02:00,69.4,66.7,30.04,SSW,202,0.0,0.0,91,0.00,,,0.00,meteohub,2013-08-10 04:02:00,
2013-08-09 23:07:00,69.4,66.7,30.04,SSW,202,0.0,0.0,91,0.00,,,0.00,meteohub,2013-08-10 04:07:00,
2013-08-09 23:12:00,69.4,66.7,30.04,SSW,202,0.0,0.0,91,0.00,,,0.00,meteohub,2013-08-10 04:12:00,
2013-08-09 23:17:00,69.4,66.7,30.04,SSW,202,0.0,0.0,91,0.00,,,0.00,meteohub,2013-08-10 04:17:00,
2013-08-09 23:22:00,69.4,66.7,30.04,SSW,202,0.0,0.0,91,0.00,,,0.00,meteohub,2013-08-10 04:22:00,
2013-08-09 23:27:00,69.4,66.7,30.04,SSW,202,0.0,0.0,91,0.00,,,0.00,meteohub,2013-08-10 04:27:00,
2013-08-09 23:32:00,69.3,66.6,30.04,SSW,202,0.0,0.0,91,0.00,,,0.00,meteohub,2013-08-10 04:32:00,
2013-08-09 23:37:00,69.4,66.7,30.04,SSW,202,0.0,0.0,91,0.00,,,0.00,meteohub,2013-08-10 04:37:00,
2013-08-09 23:42:00,69.4,66.7,30.04,SSW,202,0.0,0.0,91,0.00,,,0.00,meteohub,2013-08-10 04:42:00,
2013-08-09 23:47:00,69.4,66.7,30.05,SSW,202,0.0,0.0,91,0.00,,,0.00,meteohub,2013-08-10 04:47:00,
2013-08-09 23:52:00,69.4,66.7,30.05,SSW,202,0.0,0.0,91,0.00,,,0.00,meteohub,2013-08-10 04:52:00,
2013-08-09 23:57:00,69.6,66.6,30.05,SSW,202,0.0,0.0,90,0.00,,,0.00,meteohub,2013-08-10 04:57:00,